Time,TemperatureF,DewpointF,PressureIn,WindDirection,WindDirectionDegrees,WindSpeedMPH,WindSpeedGustMPH,Humidity,HourlyPrecipIn,Conditions,Clouds,dailyrainin,SolarRadiationWatts/m^2,SoftwareType,DateUTC
2013-01-08 00:00:00,70.1,67.7,30.07,ENE,73,0.0,0.0,92,0.00,, +RA,0.00,0.00,VWS V14.00,2013-01-08 05:00:00,
2013-01-08 00:01:00,70.1,67.7,30.07,ENE,73,0.0,0.0,92,0.00,, +RA,0.00,0.00,VWS V14.00,2013-01-08 05:01:00,
2013-01-08 00:03:00,70.1,67.7,30.07,ENE,73,0.0,0.0,92,0.00,, +RA,0.00,0.00,VWS V14.00,2013-01-08 05:03:00,
2013-01-08 00:08:00,70.0,67.6,30.06,ENE,73,0.0,0.0,92,0.00,, +RA,0.00,0.00,VWS V14.00,2013-01-08 05:08:00,
2013-01-08 00:13:00,70.0,67.6,30.06,ENE,73,0.0,0.0,92,0.00,, +RA,0.00,0.00,VWS V14.00,2013-01-08 05:13:00,
2013-01-08 00:18:00,69.9,67.5,30.06,ENE,73,0.0,0.0,92,0.00,, +RA,0.00,0.00,VWS V14.00,2013-01-08 05:18:00,
2013-01-08 00:23:00,69.9,67.5,30.06,ENE,73,0.0,0.0,92,0.00,, +RA,0.00,0.00,VWS V14.00,2013-01-08 05:23:00,
2013-01-08 00:28:00,69.8,67.4,30.06,ENE,73,0.0,0.0,92,0.00,, +RA,0.00,0.00,VWS V14.00,2013-01-08 05:28:00,
2013-01-08 00:33:00,69.7,67.3,30.06,ENE,73,0.0,0.0,92,0.00,, +RA,0.00,0.00,VWS V14.00,2013-01-08 05:33:00,
2013-01-08 00:38:00,69.7,67.3,30.06,ENE,73,0.0,0.0,92,0.00,, +RA,0.00,0.00,VWS V14.00,2013-01-08 05:38:00,
2013-01-08 00:43:00,69.7,67.3,30.06,ENE,73,0.0,0.0,92,0.00,, +RA,0.00,0.00,VWS V14.00,2013-01-08 05:43:00,
2013-01-08 00:48:00,69.7,67.3,30.06,ENE,73,0.0,0.0,92,0.00,, +RA,0.00,0.00,VWS V14.00,2013-01-08 05:48:00,
2013-01-08 00:53:00,69.7,67.3,30.06,ENE,73,0.0,0.0,92,0.00,, +RA,0.00,0.00,VWS V14.00,2013-01-08 05:53:00,
2013-01-08 00:58:00,69.7,67.3,30.06,ENE,73,0.0,0.0,92,0.00,, +RA,0.00,0.00,VWS V14.00,2013-01-08 05:58:00,
2013-01-08 01:03:00,69.7,67.3,30.06,ENE,73,0.0,0.0,92,0.00,, +RA,0.00,0.00,VWS V14.00,2013-01-08 06:03:00,
2013-01-08 01:08:00,69.7,67.3,30.06,ENE,73,0.0,0.0,92,0.00,, +RA,0.00,0.00,VWS V14.00,2013-01-08 06:08:00,
2013-01-08 01:13:00,69.6,67.2,30.06,ENE,73,0.0,0.0,92,0.00,, +RA,0.00,0.00,VWS V14.00,2013-01-08 06:13:00,
2013-01-08 01:18:00,69.6,67.2,30.05,ENE,73,0.0,0.0,92,0.00,, +RA,0.00,0.00,VWS V14.00,2013-01-08 06:18:00,
2013-01-08 01:23:00,69.6,67.2,30.05,ENE,73,0.0,0.0,92,0.00,, +RA,0.00,0.00,VWS V14.00,2013-01-08 06:23:00,
2013-01-08 01:28:00,69.5,67.1,30.05,ENE,73,0.0,0.0,92,0.00,, +RA,0.00,0.00,VWS V14.00,2013-01-08 06:28:00,
2013-01-08 01:33:00,69.6,67.2,30.05,ENE,73,0.0,0.0,92,0.00,, +RA,0.00,0.00,VWS V14.00,2013-01-08 06:33:00,
2013-01-08 01:38:00,69.5,67.1,30.05,ENE,73,0.0,0.0,92,0.00,, +RA,0.00,0.00,VWS V14.00,2013-01-08 06:38:00,
2013-01-08 01:43:00,69.6,67.2,30.05,ENE,73,0.0,0.0,92,0.00,, +RA,0.00,0.00,VWS V14.00,2013-01-08 06:43:00,
2013-01-08 01:48:00,69.6,67.2,30.05,ENE,73,0.0,0.0,92,0.00,, +RA,0.00,0.00,VWS V14.00,2013-01-08 06:48:00,
2013-01-08 01:53:00,69.5,67.1,30.05,ENE,73,0.0,0.0,92,0.00,, +RA,0.00,0.00,VWS V14.00,2013-01-08 06:53:00,
2013-01-08 01:58:00,69.5,67.1,30.05,ENE,73,0.0,0.0,92,0.00,, +RA,0.00,0.00,VWS V14.00,2013-01-08 06:58:00,
2013-01-08 02:03:00,69.4,67.0,30.05,ENE,73,0.0,0.0,92,0.00,, +RA,0.00,0.00,VWS V14.00,2013-01-08 07:03:00,
2013-01-08 02:08:00,69.4,67.0,30.04,ENE,73,0.0,0.0,92,0.00,, +RA,0.00,0.00,VWS V14.00,2013-01-08 07:08:00,
2013-01-08 02:13:00,69.4,67.0,30.04,ENE,73,0.0,0.0,92,0.00,, +RA,0.00,0.00,VWS V14.00,2013-01-08 07:13:00,
2013-01-08 02:18:00,69.4,67.0,30.04,ENE,73,0.0,0.0,92,0.00,, +RA,0.00,0.00,VWS V14.00,2013-01-08 07:18:00,
2013-01-08 02:23:00,69.4,67.0,30.04,ENE,73,0.0,0.0,92,0.00,, +RA,0.00,0.00,VWS V14.00,2013-01-08 07:23:00,
2013-01-08 02:28:00,69.5,67.1,30.04,ENE,73,0.0,0.0,92,0.00,, +RA,0.00,0.00,VWS V14.00,2013-01-08 07:28:00,
2013-01-08 02:33:00,69.7,67.3,30.04,ENE,73,0.0,1.0,92,0.00,, +RA,0.00,0.00,VWS V14.00,2013-01-08 07:33:00,
2013-01-08 02:38:00,69.9,67.5,30.04,ENE,73,0.0,0.0,92,0.00,, +RA,0.00,0.00,VWS V14.00,2013-01-08 07:38:00,
2013-01-08 02:43:00,70.1,67.7,30.04,ENE,73,0.0,0.0,92,0.00,, +RA,0.00,0.00,VWS V14.00,2013-01-08 07:43:00,
2013-01-08 02:48:00,70.1,67.7,30.04,ENE,73,0.0,0.0,92,0.00,, +RA,0.00,0.00,VWS V14.00,2013-01-08 07:48:00,
2013-01-08 02:53:00,70.1,67.7,30.04,ENE,73,0.0,0.0,92,0.00,, +RA,0.00,0.00,VWS V14.00,2013-01-08 07:53:00,
2013-01-08 02:58:00,70.1,67.7,30.04,ENE,73,0.0,0.0,92,0.00,, +RA,0.00,0.00,VWS V14.00,2013-01-08 07:58:00,
2013-01-08 03:03:00,70.2,67.8,30.04,ENE,73,0.0,0.0,92,0.00,, +RA,0.00,0.00,VWS V14.00,2013-01-08 08:03:00,
2013-01-08 03:08:00,70.2,67.8,30.04,ENE,73,0.0,0.0,92,0.00,, +RA,0.00,0.00,VWS V14.00,2013-01-08 08:08:00,
2013-01-08 03:13:00,70.1,67.7,30.04,ENE,73,0.0,0.0,92,0.00,, +RA,0.00,0.00,VWS V14.00,2013-01-08 08:13:00,
2013-01-08 03:18:00,70.0,67.6,30.03,ENE,73,0.0,0.0,92,0.00,, +RA,0.00,0.00,VWS V14.00,2013-01-08 08:18:00,
2013-01-08 03:23:00,69.9,67.5,30.03,ENE,73,0.0,0.0,92,0.00,, +RA,0.00,0.00,VWS V14.00,2013-01-08 08:23:00,
2013-01-08 03:28:00,69.8,67.4,30.03,ENE,73,0.0,0.0,92,0.00,, +RA,0.00,0.00,VWS V14.00,2013-01-08 08:28:00,
2013-01-08 03:33:00,69.8,67.4,30.03,ENE,73,0.0,0.0,92,0.00,, +RA,0.00,0.00,VWS V14.00,2013-01-08 08:33:00,
2013-01-08 03:38:00,69.7,67.3,30.03,ENE,73,0.0,0.0,92,0.00,, +RA,0.00,0.00,VWS V14.00,2013-01-08 08:38:00,
2013-01-08 03:43:00,69.7,67.3,30.03,ENE,73,0.0,0.0,92,0.00,, +RA,0.00,0.00,VWS V14.00,2013-01-08 08:43:00,
2013-01-08 03:48:00,69.5,67.1,30.03,ENE,73,0.0,0.0,92,0.00,, +RA,0.00,0.00,VWS V14.00,2013-01-08 08:48:00,
2013-01-08 03:53:00,69.5,67.1,30.03,ENE,73,0.0,0.0,92,0.00,, +RA,0.00,0.00,VWS V14.00,2013-01-08 08:53:00,
2013-01-08 03:58:00,69.4,67.0,30.03,ENE,73,0.0,0.0,92,0.00,, +RA,0.00,0.00,VWS V14.00,2013-01-08 08:58:00,
2013-01-08 04:03:00,69.3,66.9,30.03,ENE,73,0.0,0.0,92,0.00,, +RA,0.00,0.00,VWS V14.00,2013-01-08 09:03:00,
2013-01-08 04:08:00,69.3,66.9,30.03,ENE,73,0.0,0.0,92,0.00,, +RA,0.00,0.00,VWS V14.00,2013-01-08 09:08:00,
2013-01-08 04:13:00,69.5,67.1,30.03,ENE,73,0.0,0.0,92,0.00,, +RA,0.00,0.00,VWS V14.00,2013-01-08 09:13:00,
2013-01-08 04:18:00,69.5,67.1,30.03,ENE,73,0.0,0.0,92,0.00,, +RA,0.00,0.00,VWS V14.00,2013-01-08 09:18:00,
2013-01-08 04:23:00,69.6,67.2,30.03,ENE,73,0.0,0.0,92,0.00,, +RA,0.00,0.00,VWS V14.00,2013-01-08 09:23:00,
2013-01-08 04:28:00,69.7,67.3,30.03,ENE,73,1.0,2.0,92,0.00,, +RA,0.00,0.00,VWS V14.00,2013-01-08 09:28:00,
2013-01-08 04:33:00,70.1,67.7,30.03,ENE,78,5.0,7.0,92,0.00,, +RA,0.00,0.00,VWS V14.00,2013-01-08 09:33:00,
2013-01-08 04:38:00,70.6,68.2,30.03,ESE,104,0.0,3.0,92,0.00,, +RA,0.00,0.00,VWS V14.00,2013-01-08 09:38:00,
2013-01-08 04:43:00,70.8,68.4,30.03,ESE,104,0.0,0.0,92,0.00,, +RA,0.00,0.00,VWS V14.00,2013-01-08 09:43:00,
2013-01-08 04:48:00,70.9,68.5,30.03,ESE,104,0.0,0.0,92,0.00,, +RA,0.00,0.00,VWS V14.00,2013-01-08 09:48:00,
2013-01-08 04:53:00,70.9,68.5,30.04,ESE,104,0.0,1.0,92,0.00,, +RA,0.00,0.00,VWS V14.00,2013-01-08 09:53:00,
2013-01-08 04:58:00,70.8,68.4,30.03,ESE,104,0.0,0.0,92,0.00,, +RA,0.00,0.00,VWS V14.00,2013-01-08 09:58:00,
2013-01-08 05:03:00,70.8,68.4,30.04,ESE,104,0.0,0.0,92,0.00,, +RA,0.00,0.00,VWS V14.00,2013-01-08 10:03:00,
2013-01-08 05:08:00,70.8,68.4,30.04,ESE,104,0.0,0.0,92,0.00,, +RA,0.00,0.00,VWS V14.00,2013-01-08 10:08:00,
2013-01-08 05:13:00,70.7,68.3,30.04,ESE,105,0.0,0.0,92,0.00,, +RA,0.00,0.00,VWS V14.00,2013-01-08 10:13:00,
2013-01-08 05:18:00,70.7,68.3,30.04,ESE,104,0.0,0.0,92,0.00,, +RA,0.00,0.00,VWS V14.00,2013-01-08 10:18:00,
2013-01-08 05:23:00,70.7,68.3,30.05,ESE,104,0.0,0.0,92,0.00,, +RA,0.00,0.00,VWS V14.00,2013-01-08 10:23:00,
2013-01-08 05:28:00,70.7,68.3,30.05,ESE,105,0.0,0.0,92,0.00,, +RA,0.00,0.00,VWS V14.00,2013-01-08 10:28:00,
2013-01-08 05:33:00,70.8,68.4,30.05,ESE,104,0.0,0.0,92,0.00,, +RA,0.00,0.00,VWS V14.00,2013-01-08 10:33:00,
2013-01-08 05:39:00,70.8,68.4,30.05,ESE,104,0.0,0.0,92,0.00,, +RA,0.00,0.00,VWS V14.00,2013-01-08 10:39:00,
2013-01-08 05:44:00,70.8,68.4,30.05,ESE,104,0.0,0.0,92,0.00,, +RA,0.00,0.00,VWS V14.00,2013-01-08 10:44:00,
2013-01-08 05:49:00,70.8,68.4,30.06,ESE,104,0.0,0.0,92,0.00,, +RA,0.00,0.00,VWS V14.00,2013-01-08 10:49:00,
2013-01-08 05:54:00,70.8,68.4,30.06,ESE,104,0.0,0.0,92,0.00,, +RA,0.00,0.00,VWS V14.00,2013-01-08 10:54:00,
2013-01-08 05:59:00,70.8,68.4,30.06,ESE,104,0.0,0.0,92,0.00,, +RA,0.00,0.00,VWS V14.00,2013-01-08 10:59:00,
2013-01-08 06:04:00,70.8,68.4,30.06,ESE,104,0.0,0.0,92,0.00,, +RA,0.00,0.00,VWS V14.00,2013-01-08 11:04:00,
2013-01-08 06:09:00,70.8,68.4,30.06,ESE,104,0.0,0.0,92,0.00,, +RA,0.00,0.00,VWS V14.00,2013-01-08 11:09:00,
2013-01-08 06:14:00,70.7,68.3,30.06,ESE,104,0.0,0.0,92,0.00,, +RA,0.00,0.00,VWS V14.00,2013-01-08 11:14:00,
2013-01-08 06:19:00,70.8,68.4,30.07,ESE,104,0.0,0.0,92,0.00,, +RA,0.00,0.00,VWS V14.00,2013-01-08 11:19:00,
2013-01-08 06:24:00,70.8,68.4,30.07,ESE,104,0.0,0.0,92,0.00,, +RA,0.00,0.00,VWS V14.00,2013-01-08 11:24:00,
2013-01-08 06:29:00,70.8,68.4,30.07,ESE,104,0.0,0.0,92,0.00,, +RA,0.00,0.00,VWS V14.00,2013-01-08 11:29:00,
2013-01-08 06:34:00,70.8,68.4,30.07,ESE,104,0.0,0.0,92,0.00,, +RA,0.00,0.00,VWS V14.00,2013-01-08 11:34:00,
2013-01-08 06:39:00,70.9,68.5,30.07,ESE,104,0.0,0.0,92,0.00,, +RA,0.00,0.00,VWS V14.00,2013-01-08 11:39:00,
2013-01-08 06:44:00,70.9,68.5,30.07,ESE,104,0.0,0.0,92,0.00,, +RA,0.00,0.00,VWS V14.00,2013-01-08 11:44:00,
2013-01-08 06:49:00,70.9,68.5,30.08,ESE,104,0.0,0.0,92,0.00,, +RA,0.00,0.00,VWS V14.00,2013-01-08 11:49:00,
2013-01-08 06:54:00,70.9,68.5,30.08,ESE,104,0.0,0.0,92,0.00,, +RA,0.00,0.00,VWS V14.00,2013-01-08 11:54:00,
2013-01-08 06:59:00,70.9,68.5,30.08,ESE,104,0.0,0.0,92,0.00,, +RA,0.00,0.00,VWS V14.00,2013-01-08 11:59:00,
2013-01-08 07:04:00,70.9,68.5,30.08,ESE,104,0.0,0.0,92,0.00,, +RA,0.00,0.00,VWS V14.00,2013-01-08 12:04:00,
2013-01-08 07:09:00,71.0,68.6,30.08,ESE,104,0.0,0.0,92,0.00,, +RA,0.00,0.00,VWS V14.00,2013-01-08 12:09:00,
2013-01-08 07:14:00,71.0,68.6,30.08,ESE,104,0.0,0.0,92,0.00,, +RA,0.00,0.00,VWS V14.00,2013-01-08 12:14:00,
2013-01-08 07:19:00,71.0,68.6,30.09,ESE,104,0.0,0.0,92,0.00,, +RA,0.00,0.00,VWS V14.00,2013-01-08 12:19:00,
2013-01-08 07:24:00,71.0,68.6,30.09,ESE,104,0.0,0.0,92,0.00,, +RA,0.00,0.00,VWS V14.00,2013-01-08 12:24:00,
2013-01-08 07:29:00,71.0,68.6,30.09,ESE,104,0.0,0.0,92,0.00,, +RA,0.00,9.00,VWS V14.00,2013-01-08 12:29:00,
2013-01-08 07:34:00,71.0,68.6,30.09,ESE,104,0.0,0.0,92,0.00,, +RA,0.00,21.00,VWS V14.00,2013-01-08 12:34:00,
2013-01-08 07:39:00,71.0,68.6,30.09,ESE,104,0.0,0.0,92,0.00,, +RA,0.00,16.00,VWS V14.00,2013-01-08 12:39:00,
2013-01-08 07:44:00,71.1,68.7,30.10,ESE,104,0.0,0.0,92,0.00,, +RA,0.00,21.00,VWS V14.00,2013-01-08 12:44:00,
2013-01-08 07:49:00,71.1,68.7,30.10,ESE,104,0.0,0.0,92,0.00,, +RA,0.00,28.00,VWS V14.00,2013-01-08 12:49:00,
2013-01-08 07:54:00,71.2,68.8,30.10,ESE,104,0.0,0.0,92,0.00,, +RA,0.00,32.00,VWS V14.00,2013-01-08 12:54:00,
2013-01-08 07:59:00,71.4,69.0,30.10,ESE,104,0.0,0.0,92,0.00,, +RA,0.00,37.00,VWS V14.00,2013-01-08 12:59:00,
2013-01-08 08:04:00,71.8,69.3,30.11,ESE,104,0.0,0.0,92,0.00,, +RA,0.00,40.00,VWS V14.00,2013-01-08 13:04:00,
2013-01-08 08:09:00,72.0,69.6,30.11,ESE,104,0.0,0.0,92,0.00,, +RA,0.00,40.00,VWS V14.00,2013-01-08 13:09:00,
2013-01-08 08:14:00,72.2,69.8,30.11,ESE,104,0.0,0.0,92,0.00,, +RA,0.00,46.00,VWS V14.00,2013-01-08 13:14:00,
2013-01-08 08:19:00,72.3,69.8,30.11,ESE,104,0.0,0.0,92,0.00,, +RA,0.00,49.00,VWS V14.00,2013-01-08 13:19:00,
2013-01-08 08:24:00,72.5,70.1,30.11,ESE,104,0.0,0.0,92,0.00,, +RA,0.00,54.00,VWS V14.00,2013-01-08 13:24:00,
2013-01-08 08:29:00,72.7,70.2,30.12,ESE,104,0.0,0.0,92,0.00,, +RA,0.00,67.00,VWS V14.00,2013-01-08 13:29:00,
2013-01-08 08:34:00,73.0,70.5,30.12,ESE,105,0.0,0.0,92,0.00,,SCT060,0.00,63.00,VWS V14.00,2013-01-08 13:34:00,
2013-01-08 08:39:00,73.2,70.7,30.12,ESE,104,0.0,0.0,92,0.00,,SCT060,0.00,35.00,VWS V14.00,2013-01-08 13:39:00,
2013-01-08 08:44:00,73.3,70.8,30.12,ESE,104,0.0,0.0,92,0.00,,SCT060,0.00,33.00,VWS V14.00,2013-01-08 13:44:00,
2013-01-08 08:49:00,73.5,71.0,30.12,ESE,104,0.0,0.0,92,0.00,,SCT060,0.00,37.00,VWS V14.00,2013-01-08 13:49:00,
2013-01-08 08:54:00,73.7,71.2,30.13,ESE,104,0.0,0.0,92,0.00,,SCT060,0.00,39.00,VWS V14.00,2013-01-08 13:54:00,
2013-01-08 08:59:00,73.9,71.4,30.13,ESE,105,0.0,0.0,92,0.00,,SCT060,0.00,49.00,VWS V14.00,2013-01-08 13:59:00,
2013-01-08 09:04:00,74.0,71.5,30.14,ESE,104,0.0,0.0,92,0.00,,SCT060,0.00,70.00,VWS V14.00,2013-01-08 14:04:00,
2013-01-08 09:09:00,74.2,71.7,30.14,ESE,104,0.0,0.0,92,0.00,,SCT060,0.00,134.00,VWS V14.00,2013-01-08 14:09:00,
2013-01-08 09:14:00,74.4,71.9,30.14,SE,128,3.0,7.0,92,0.00,,SCT060,0.00,141.00,VWS V14.00,2013-01-08 14:14:00,
2013-01-08 09:19:00,74.5,72.0,30.14,South,169,6.0,8.0,92,0.00,,SCT060,0.00,127.00,VWS V14.00,2013-01-08 14:19:00,
2013-01-08 09:24:00,74.9,72.4,30.15,South,169,4.0,10.0,92,0.00,,SCT060,0.00,74.00,VWS V14.00,2013-01-08 14:24:00,
2013-01-08 09:29:00,75.4,72.6,30.15,South,187,3.0,11.0,91,0.00,,SCT060,0.00,93.00,VWS V14.00,2013-01-08 14:29:00,
2013-01-08 09:34:00,76.0,72.9,30.15,South,170,3.0,9.0,90,0.00,,SCT060,0.00,91.00,VWS V14.00,2013-01-08 14:34:00,
2013-01-08 09:39:00,76.4,72.6,30.15,South,170,3.0,11.0,88,0.00,,SCT060,0.00,90.00,VWS V14.00,2013-01-08 14:39:00,
2013-01-08 09:44:00,76.8,72.3,30.15,South,170,10.0,11.0,86,0.00,,SCT060,0.00,93.00,VWS V14.00,2013-01-08 14:44:00,
2013-01-08 09:49:00,77.2,72.3,30.15,SSE,163,2.0,10.0,85,0.00,,SCT060,0.00,100.00,VWS V14.00,2013-01-08 14:49:00,
2013-01-08 09:54:00,77.7,72.5,30.15,South,184,5.0,10.0,84,0.00,,SCT060,0.00,104.00,VWS V14.00,2013-01-08 14:54:00,
2013-01-08 09:59:00,78.0,72.1,30.15,South,180,4.0,11.0,82,0.00,,SCT060,0.00,107.00,VWS V14.00,2013-01-08 14:59:00,
2013-01-08 10:04:00,78.4,72.1,30.15,South,182,7.0,12.0,81,0.00,,SCT060,0.00,109.00,VWS V14.00,2013-01-08 15:04:00,
2013-01-08 10:09:00,78.6,72.3,30.15,SSE,167,6.0,10.0,81,0.00,,SCT060,0.00,116.00,VWS V14.00,2013-01-08 15:09:00,
2013-01-08 10:14:00,78.8,72.1,30.15,South,175,9.0,12.0,80,0.00,,SCT060,0.00,123.00,VWS V14.00,2013-01-08 15:14:00,
2013-01-08 10:19:00,78.8,72.1,30.15,South,190,4.0,10.0,80,0.00,,SCT060,0.00,107.00,VWS V14.00,2013-01-08 15:19:00,
2013-01-08 10:24:00,78.9,71.8,30.15,SE,146,10.0,14.0,79,0.00,,SCT060,0.00,111.00,VWS V14.00,2013-01-08 15:24:00,
2013-01-08 10:29:00,79.0,71.9,30.15,SSW,199,10.0,12.0,79,0.00,,SCT060,0.00,60.00,VWS V14.00,2013-01-08 15:29:00,
2013-01-08 10:34:00,78.9,71.8,30.14,South,169,4.0,13.0,79,0.00,,SCT060,0.00,47.00,VWS V14.00,2013-01-08 15:34:00,
2013-01-08 10:39:00,78.6,71.2,30.15,South,185,2.0,13.0,78,0.00,,SCT060,0.00,56.00,VWS V14.00,2013-01-08 15:39:00,
2013-01-08 10:44:00,78.8,71.4,30.14,South,183,10.0,12.0,78,0.00,,SCT060,0.00,121.00,VWS V14.00,2013-01-08 15:44:00,
2013-01-08 10:49:00,79.1,71.3,30.14,SSW,206,9.0,14.0,77,0.00,,SCT060,0.00,118.00,VWS V14.00,2013-01-08 15:49:00,
2013-01-08 10:54:00,79.4,71.2,30.14,SSW,195,4.0,12.0,76,0.00,,SCT060,0.00,120.00,VWS V14.00,2013-01-08 15:54:00,
2013-01-08 10:59:00,79.8,71.2,30.14,SSE,168,6.0,11.0,75,0.00,,SCT060,0.00,116.00,VWS V14.00,2013-01-08 15:59:00,
2013-01-08 11:04:00,79.9,70.9,30.14,South,187,9.0,10.0,74,0.00,,SCT060,0.00,116.00,VWS V14.00,2013-01-08 16:04:00,
2013-01-08 11:09:00,80.2,71.2,30.14,South,180,10.0,10.0,74,0.00,,SCT060,0.00,111.00,VWS V14.00,2013-01-08 16:09:00,
2013-01-08 11:14:00,80.2,70.4,30.13,SSW,205,4.0,10.0,72,0.00,,SCT060,0.00,105.00,VWS V14.00,2013-01-08 16:14:00,
2013-01-08 11:19:00,80.3,70.9,30.13,South,185,3.0,10.0,73,0.00,,SCT060,0.00,42.00,VWS V14.00,2013-01-08 16:19:00,
2013-01-08 11:24:00,80.4,71.0,30.13,South,178,6.0,10.0,73,0.00,,SCT060,0.00,116.00,VWS V14.00,2013-01-08 16:24:00,
2013-01-08 11:29:00,80.5,71.5,30.13,SSW,200,4.0,9.0,74,0.00,,SCT060,0.00,111.00,VWS V14.00,2013-01-08 16:29:00,
2013-01-08 11:34:00,80.5,71.1,30.13,South,173,7.0,15.0,73,0.00,,SCT020,0.00,120.00,VWS V14.00,2013-01-08 16:34:00,
2013-01-08 11:39:00,80.4,71.8,30.12,South,191,3.0,9.0,75,0.00,,SCT020,0.00,125.00,VWS V14.00,2013-01-08 16:39:00,
2013-01-08 11:44:00,80.9,71.8,30.12,South,184,5.0,10.0,74,0.00,,SCT020,0.00,42.00,VWS V14.00,2013-01-08 16:44:00,
2013-01-08 11:49:00,80.9,72.2,30.12,SSW,194,9.0,10.0,75,0.00,,SCT020,0.00,128.00,VWS V14.00,2013-01-08 16:49:00,
2013-01-08 11:54:00,80.4,71.4,30.12,South,180,12.0,14.0,74,0.00,,SCT020,0.00,130.00,VWS V14.00,2013-01-08 16:54:00,
2013-01-08 11:59:00,80.2,71.2,30.12,South,179,0.0,7.0,74,0.00,,SCT020,0.00,127.00,VWS V14.00,2013-01-08 16:59:00,
2013-01-08 12:04:00,80.5,71.5,30.12,SSW,200,3.0,10.0,74,0.00,,SCT020,0.00,120.00,VWS V14.00,2013-01-08 17:04:00,
2013-01-08 12:09:00,80.7,70.8,30.12,SSE,157,7.0,12.0,72,0.00,,SCT020,0.00,120.00,VWS V14.00,2013-01-08 17:09:00,
2013-01-08 12:14:00,80.7,71.7,30.11,SSE,157,9.0,10.0,74,0.00,,SCT020,0.00,132.00,VWS V14.00,2013-01-08 17:14:00,
2013-01-08 12:20:00,80.6,71.6,30.11,SSW,199,2.0,10.0,74,0.00,,SCT020,0.00,128.00,VWS V14.00,2013-01-08 17:20:00,
2013-01-08 12:25:00,80.9,71.0,30.11,SSE,158,7.0,11.0,72,0.00,,SCT020,0.00,127.00,VWS V14.00,2013-01-08 17:25:00,
2013-01-08 12:30:00,81.1,71.6,30.11,SSW,192,10.0,12.0,73,0.00,,SCT020,0.00,60.00,VWS V14.00,2013-01-08 17:30:00,
2013-01-08 12:35:00,80.8,71.3,30.11,South,175,4.0,11.0,73,0.00,,SCT030CU,0.00,153.00,VWS V14.00,2013-01-08 17:35:00,
2013-01-08 12:40:00,81.1,71.6,30.10,South,187,12.0,13.0,73,0.00,,SCT030CU,0.00,153.00,VWS V14.00,2013-01-08 17:40:00,
2013-01-08 12:45:00,81.2,71.3,30.10,SSE,167,6.0,14.0,72,0.00,,SCT030CU,0.00,65.00,VWS V14.00,2013-01-08 17:45:00,
2013-01-08 12:50:00,81.0,71.9,30.10,SSW,196,6.0,11.0,74,0.00,,SCT030CU,0.00,100.00,VWS V14.00,2013-01-08 17:50:00,
2013-01-08 12:55:00,81.0,71.5,30.10,SSE,163,7.0,12.0,73,0.00,,SCT030CU,0.00,169.00,VWS V14.00,2013-01-08 17:55:00,
2013-01-08 13:00:00,81.1,71.6,30.10,SSW,197,3.0,10.0,73,0.00,,SCT030CU,0.00,111.00,VWS V14.00,2013-01-08 18:00:00,
2013-01-08 13:05:00,81.2,71.7,30.10,SSE,157,3.0,5.0,73,0.00,,SCT030CU,0.00,125.00,VWS V14.00,2013-01-08 18:05:00,
2013-01-08 13:10:00,80.9,71.4,30.09,South,180,3.0,6.0,73,0.00,,SCT030CU,0.00,77.00,VWS V14.00,2013-01-08 18:10:00,
2013-01-08 13:15:00,80.4,71.4,30.09,South,177,10.0,13.0,74,0.00,,SCT030CU,0.00,100.00,VWS V14.00,2013-01-08 18:15:00,
2013-01-08 13:20:00,80.6,72.3,30.09,SSE,162,8.0,10.0,76,0.00,,SCT030CU,0.00,83.00,VWS V14.00,2013-01-08 18:20:00,
2013-01-08 13:25:00,80.4,72.2,30.09,South,169,11.0,14.0,76,0.00,,SCT030CU,0.00,142.00,VWS V14.00,2013-01-08 18:25:00,
2013-01-08 13:30:00,79.8,71.6,30.09,SSE,159,5.0,12.0,76,0.00,,SCT030CU,0.00,102.00,VWS V14.00,2013-01-08 18:30:00,
2013-01-08 13:35:00,79.7,72.2,30.09,SSE,160,11.0,12.0,78,0.00,,SCT030CU,0.00,146.00,VWS V14.00,2013-01-08 18:35:00,
2013-01-08 13:40:00,79.5,72.0,30.08,SSE,151,0.0,11.0,78,0.00,,SCT030CU,0.00,97.00,VWS V14.00,2013-01-08 18:40:00,
2013-01-08 13:45:00,79.4,71.9,30.08,SSE,159,11.0,11.0,78,0.00,,SCT030CU,0.00,90.00,VWS V14.00,2013-01-08 18:45:00,
2013-01-08 13:50:00,79.4,72.3,30.08,SSE,156,9.0,13.0,79,0.00,,SCT030CU,0.00,72.00,VWS V14.00,2013-01-08 18:50:00,
2013-01-08 13:55:00,79.7,72.6,30.08,SSE,147,10.0,14.0,79,0.00,,SCT030CU,0.00,81.00,VWS V14.00,2013-01-08 18:55:00,
2013-01-08 14:00:00,79.5,72.0,30.08,South,190,14.0,17.0,78,0.00,,SCT030CU,0.00,151.00,VWS V14.00,2013-01-08 19:00:00,
2013-01-08 14:05:00,79.7,72.2,30.08,SSE,149,11.0,11.0,78,0.00,,SCT030CU,0.00,120.00,VWS V14.00,2013-01-08 19:05:00,
2013-01-08 14:10:00,79.9,72.1,30.08,SE,143,7.0,9.0,77,0.00,,SCT030CU,0.00,72.00,VWS V14.00,2013-01-08 19:10:00,
2013-01-08 14:15:00,79.7,71.9,30.08,SSE,159,6.0,9.0,77,0.00,,SCT030CU,0.00,86.00,VWS V14.00,2013-01-08 19:15:00,
2013-01-08 14:20:00,79.8,71.9,30.08,SSE,154,4.0,12.0,77,0.00,,SCT030CU,0.00,135.00,VWS V14.00,2013-01-08 19:20:00,
2013-01-08 14:25:00,80.0,71.8,30.08,SSE,151,5.0,14.0,76,0.00,,SCT030CU,0.00,127.00,VWS V14.00,2013-01-08 19:25:00,
2013-01-08 14:30:00,80.0,71.8,30.08,SSE,159,13.0,13.0,76,0.00,,SCT030CU,0.00,69.00,VWS V14.00,2013-01-08 19:30:00,
2013-01-08 14:35:00,79.9,72.1,30.08,South,173,12.0,13.0,77,0.00,,SCT030CU,0.00,79.00,VWS V14.00,2013-01-08 19:35:00,
2013-01-08 14:40:00,79.9,72.1,30.08,SSE,161,6.0,11.0,77,0.00,,SCT030CU,0.00,77.00,VWS V14.00,2013-01-08 19:40:00,
2013-01-08 14:45:00,80.0,72.2,30.08,SSE,155,2.0,6.0,77,0.00,,SCT030CU,0.00,130.00,VWS V14.00,2013-01-08 19:45:00,
2013-01-08 14:50:00,79.9,72.1,30.08,South,171,7.0,13.0,77,0.00,,SCT030CU,0.00,114.00,VWS V14.00,2013-01-08 19:50:00,
2013-01-08 14:55:00,80.0,72.2,30.08,South,171,4.0,12.0,77,0.00,,SCT030CU,0.00,97.00,VWS V14.00,2013-01-08 19:55:00,
2013-01-08 15:00:00,80.2,71.9,30.08,South,171,11.0,14.0,76,0.00,,SCT030CU,0.00,69.00,VWS V14.00,2013-01-08 20:00:00,
2013-01-08 15:05:00,80.3,72.4,30.08,SSE,153,11.0,11.0,77,0.00,,SCT030CU,0.00,109.00,VWS V14.00,2013-01-08 20:05:00,
2013-01-08 15:10:00,80.2,71.9,30.08,SSW,196,16.0,16.0,76,0.00,,SCT030CU,0.00,113.00,VWS V14.00,2013-01-08 20:10:00,
2013-01-08 15:15:00,80.1,72.2,30.08,South,180,12.0,14.0,77,0.00,,SCT030CU,0.00,100.00,VWS V14.00,2013-01-08 20:15:00,
2013-01-08 15:20:00,80.1,71.9,30.08,SSE,161,5.0,10.0,76,0.00,,SCT030CU,0.00,60.00,VWS V14.00,2013-01-08 20:20:00,
2013-01-08 15:25:00,79.9,72.1,30.08,SE,138,4.0,10.0,77,0.00,,SCT030CU,0.00,102.00,VWS V14.00,2013-01-08 20:25:00,
2013-01-08 15:30:00,79.6,71.8,30.08,SSE,147,12.0,13.0,77,0.00,,SCT030CU,0.00,77.00,VWS V14.00,2013-01-08 20:30:00,
2013-01-08 15:35:00,79.6,72.1,30.08,South,169,14.0,14.0,78,0.00,,SCT030CU,0.00,90.00,VWS V14.00,2013-01-08 20:35:00,
2013-01-08 15:40:00,79.5,72.0,30.08,SSE,163,9.0,12.0,78,0.00,,SCT030CU,0.00,65.00,VWS V14.00,2013-01-08 20:40:00,
2013-01-08 15:45:00,79.2,71.8,30.08,SSE,155,8.0,12.0,78,0.00,,SCT030CU,0.00,44.00,VWS V14.00,2013-01-08 20:45:00,
2013-01-08 15:50:00,79.0,71.6,30.08,SSE,165,6.0,7.0,78,0.00,,SCT030CU,0.00,47.00,VWS V14.00,2013-01-08 20:50:00,
2013-01-08 15:55:00,78.8,71.4,30.08,South,176,6.0,11.0,78,0.00,,SCT030CU,0.00,63.00,VWS V14.00,2013-01-08 20:55:00,
2013-01-08 16:00:00,78.8,71.4,30.09,South,180,5.0,12.0,78,0.00,,SCT030CU,0.00,44.00,VWS V14.00,2013-01-08 21:00:00,
2013-01-08 16:05:00,78.8,71.4,30.08,SSE,155,6.0,11.0,78,0.00,,SCT030CU,0.00,67.00,VWS V14.00,2013-01-08 21:05:00,
2013-01-08 16:10:00,78.8,71.7,30.08,SSE,165,1.0,8.0,79,0.00,,SCT030CU,0.00,46.00,VWS V14.00,2013-01-08 21:10:00,
2013-01-08 16:15:00,78.7,71.3,30.09,South,182,5.0,9.0,78,0.00,,SCT030CU,0.00,37.00,VWS V14.00,2013-01-08 21:15:00,
2013-01-08 16:20:00,78.6,71.6,30.09,South,178,6.0,12.0,79,0.00,,SCT030CU,0.00,37.00,VWS V14.00,2013-01-08 21:20:00,
2013-01-08 16:25:00,78.5,71.8,30.09,SSE,159,8.0,9.0,80,0.00,,SCT030CU,0.00,32.00,VWS V14.00,2013-01-08 21:25:00,
2013-01-08 16:31:00,78.4,71.7,30.09,South,171,4.0,8.0,80,0.00,,SCT030CU,0.00,35.00,VWS V14.00,2013-01-08 21:31:00,
2013-01-08 16:36:00,78.4,72.1,30.09,SSE,160,2.0,5.0,81,0.00,,SCT030CU,0.00,32.00,VWS V14.00,2013-01-08 21:36:00,
2013-01-08 16:41:00,78.4,72.1,30.09,SSE,161,10.0,11.0,81,0.00,,SCT030CU,0.00,25.00,VWS V14.00,2013-01-08 21:41:00,
2013-01-08 16:46:00,78.2,71.9,30.09,South,179,4.0,10.0,81,0.00,,SCT030CU,0.00,25.00,VWS V14.00,2013-01-08 21:46:00,
2013-01-08 16:51:00,77.9,71.6,30.09,SSE,162,5.0,11.0,81,0.00,,SCT030CU,0.00,19.00,VWS V14.00,2013-01-08 21:51:00,
2013-01-08 16:56:00,77.8,71.5,30.09,SSE,162,4.0,5.0,81,0.00,,SCT030CU,0.00,16.00,VWS V14.00,2013-01-08 21:56:00,
2013-01-08 17:01:00,77.7,71.4,30.10,SSE,167,4.0,10.0,81,0.00,,SCT030CU,0.00,12.00,VWS V14.00,2013-01-08 22:01:00,
2013-01-08 17:06:00,77.6,71.3,30.10,South,171,5.0,11.0,81,0.00,,SCT030CU,0.00,7.00,VWS V14.00,2013-01-08 22:06:00,
2013-01-08 17:11:00,77.6,71.7,30.10,SSE,159,3.0,9.0,82,0.00,,SCT030CU,0.00,5.00,VWS V14.00,2013-01-08 22:11:00,
2013-01-08 17:16:00,77.4,71.5,30.10,SSE,166,3.0,7.0,82,0.00,,SCT030CU,0.00,0.00,VWS V14.00,2013-01-08 22:16:00,
2013-01-08 17:21:00,77.4,71.5,30.10,South,173,2.0,9.0,82,0.00,,SCT030CU,0.00,0.00,VWS V14.00,2013-01-08 22:21:00,
2013-01-08 17:26:00,77.3,71.4,30.10,SSE,157,0.0,5.0,82,0.00,,SCT030CU,0.00,0.00,VWS V14.00,2013-01-08 22:26:00,
2013-01-08 17:31:00,77.3,71.7,30.10,SSE,157,4.0,5.0,83,0.00,,SCT030CU,0.00,0.00,VWS V14.00,2013-01-08 22:31:00,
2013-01-08 17:36:00,77.1,71.5,30.10,SSE,159,8.0,8.0,83,0.00,,SCT030CU,0.00,0.00,VWS V14.00,2013-01-08 22:36:00,
2013-01-08 17:41:00,77.1,71.5,30.10,SSE,158,3.0,6.0,83,0.00,,SCT030CU,0.00,0.00,VWS V14.00,2013-01-08 22:41:00,
2013-01-08 17:46:00,77.0,71.8,30.10,SSE,161,7.0,11.0,84,0.00,,SCT030CU,0.00,0.00,VWS V14.00,2013-01-08 22:46:00,
2013-01-08 17:51:00,76.9,71.7,30.10,SSE,150,4.0,10.0,84,0.00,,SCT030CU,0.00,0.00,VWS V14.00,2013-01-08 22:51:00,
2013-01-08 17:56:00,76.9,71.7,30.10,SSE,156,1.0,6.0,84,0.00,,SCT030CU,0.00,0.00,VWS V14.00,2013-01-08 22:56:00,
2013-01-08 18:01:00,76.8,71.6,30.10,SSE,154,4.0,4.0,84,0.00,,SCT030CU,0.00,0.00,VWS V14.00,2013-01-08 23:01:00,
2013-01-08 18:06:00,76.7,71.5,30.10,SSE,151,0.0,4.0,84,0.00,,SCT030CU,0.00,0.00,VWS V14.00,2013-01-08 23:06:00,
2013-01-08 18:11:00,76.6,71.4,30.10,SSE,154,0.0,7.0,84,0.00,,SCT030CU,0.00,0.00,VWS V14.00,2013-01-08 23:11:00,
2013-01-08 18:16:00,76.5,71.7,30.10,SSE,153,0.0,0.0,85,0.00,,SCT030CU,0.00,0.00,VWS V14.00,2013-01-08 23:16:00,
2013-01-08 18:21:00,76.4,71.6,30.10,SSE,151,1.0,4.0,85,0.00,,SCT030CU,0.00,0.00,VWS V14.00,2013-01-08 23:21:00,
2013-01-08 18:26:00,76.4,71.6,30.10,SSE,151,0.0,1.0,85,0.00,,SCT030CU,0.00,0.00,VWS V14.00,2013-01-08 23:26:00,
2013-01-08 18:31:00,76.3,71.5,30.10,SSE,157,1.0,7.0,85,0.00,,SCT030CU,0.00,0.00,VWS V14.00,2013-01-08 23:31:00,
2013-01-08 18:36:00,76.2,71.4,30.10,SSE,153,0.0,5.0,85,0.00,,SCT030CU,0.00,0.00,VWS V14.00,2013-01-08 23:36:00,
2013-01-08 18:41:00,76.1,71.3,30.10,SSE,153,1.0,1.0,85,0.00,,SCT030CU,0.00,0.00,VWS V14.00,2013-01-08 23:41:00,
2013-01-08 18:46:00,76.1,71.6,30.10,SSE,153,2.0,6.0,86,0.00,,SCT030CU,0.00,0.00,VWS V14.00,2013-01-08 23:46:00,
2013-01-08 18:51:00,76.0,71.5,30.11,SSE,152,3.0,4.0,86,0.00,,SCT030CU,0.00,0.00,VWS V14.00,2013-01-08 23:51:00,
2013-01-08 18:56:00,76.0,71.5,30.11,SSE,150,3.0,4.0,86,0.00,,SCT030CU,0.00,0.00,VWS V14.00,2013-01-08 23:56:00,
2013-01-08 19:01:00,76.1,71.6,30.11,SSE,147,0.0,1.0,86,0.00,,SCT030CU,0.00,0.00,VWS V14.00,2013-01-09 00:01:00,
2013-01-08 19:06:00,76.0,71.5,30.11,SSE,148,3.0,3.0,86,0.00,,SCT030CU,0.00,0.00,VWS V14.00,2013-01-09 00:06:00,
2013-01-08 19:11:00,76.0,71.5,30.11,SSE,148,3.0,3.0,86,0.00,,SCT030CU,0.00,0.00,VWS V14.00,2013-01-09 00:11:00,
2013-01-08 19:16:00,76.0,71.5,30.11,SSE,148,2.0,5.0,86,0.00,,SCT030CU,0.00,0.00,VWS V14.00,2013-01-09 00:16:00,
2013-01-08 19:21:00,76.0,71.5,30.11,SSE,148,0.0,4.0,86,0.00,,SCT030CU,0.00,0.00,VWS V14.00,2013-01-09 00:21:00,
2013-01-08 19:26:00,75.9,71.4,30.11,SSE,148,1.0,5.0,86,0.00,,SCT030CU,0.00,0.00,VWS V14.00,2013-01-09 00:26:00,
2013-01-08 19:31:00,75.9,71.4,30.11,SSE,150,2.0,7.0,86,0.00,,SCT030CU,0.00,0.00,VWS V14.00,2013-01-09 00:31:00,
2013-01-08 19:36:00,75.9,71.4,30.11,SSE,149,3.0,5.0,86,0.00,,SCT030CU,0.00,0.00,VWS V14.00,2013-01-09 00:36:00,
2013-01-08 19:41:00,75.9,71.4,30.11,SSE,148,3.0,3.0,86,0.00,,SCT030CU,0.00,0.00,VWS V14.00,2013-01-09 00:41:00,
2013-01-08 19:46:00,75.9,71.4,30.11,SSE,148,0.0,3.0,86,0.00,,SCT030CU,0.00,0.00,VWS V14.00,2013-01-09 00:46:00,
2013-01-08 19:51:00,76.0,71.5,30.11,SE,146,5.0,9.0,86,0.00,,SCT030CU,0.00,0.00,VWS V14.00,2013-01-09 00:51:00,
2013-01-08 19:56:00,76.0,71.5,30.11,SSE,149,5.0,8.0,86,0.00,,SCT030CU,0.00,0.00,VWS V14.00,2013-01-09 00:56:00,
2013-01-08 20:01:00,76.0,71.5,30.11,SSE,151,7.0,7.0,86,0.00,,SCT030CU,0.00,0.00,VWS V14.00,2013-01-09 01:01:00,
2013-01-08 20:06:00,76.0,71.5,30.11,SSE,149,5.0,6.0,86,0.00,,SCT030CU,0.00,0.00,VWS V14.00,2013-01-09 01:06:00,
2013-01-08 20:11:00,76.0,71.5,30.11,SSE,151,9.0,9.0,86,0.00,,SCT030CU,0.00,0.00,VWS V14.00,2013-01-09 01:11:00,
2013-01-08 20:16:00,76.0,71.5,30.11,SSE,148,3.0,7.0,86,0.00,,SCT030CU,0.00,0.00,VWS V14.00,2013-01-09 01:16:00,
2013-01-08 20:21:00,76.0,71.5,30.11,SE,144,0.0,3.0,86,0.00,,SCT030CU,0.00,0.00,VWS V14.00,2013-01-09 01:21:00,
2013-01-08 20:26:00,76.0,71.5,30.11,SSE,161,6.0,7.0,86,0.00,,SCT030CU,0.00,0.00,VWS V14.00,2013-01-09 01:26:00,
2013-01-08 20:32:00,76.1,71.6,30.12,SSE,157,0.0,5.0,86,0.00,,SCT030CU,0.00,0.00,VWS V14.00,2013-01-09 01:32:00,
2013-01-08 20:37:00,76.0,71.5,30.12,SSE,157,0.0,1.0,86,0.00,,SCT030CU,0.00,0.00,VWS V14.00,2013-01-09 01:37:00,
2013-01-08 20:42:00,76.0,71.5,30.11,SE,139,6.0,6.0,86,0.00,,SCT030CU,0.00,0.00,VWS V14.00,2013-01-09 01:42:00,
2013-01-08 20:47:00,76.0,71.5,30.12,SSE,153,2.0,7.0,86,0.00,,SCT030CU,0.00,0.00,VWS V14.00,2013-01-09 01:47:00,
2013-01-08 20:52:00,76.1,71.6,30.11,SSE,153,5.0,9.0,86,0.00,,SCT030CU,0.00,0.00,VWS V14.00,2013-01-09 01:52:00,
2013-01-08 20:57:00,76.1,71.6,30.11,SSE,162,6.0,10.0,86,0.00,,SCT030CU,0.00,0.00,VWS V14.00,2013-01-09 01:57:00,
2013-01-08 21:02:00,76.1,71.6,30.11,SSE,156,5.0,10.0,86,0.00,,SCT030CU,0.00,0.00,VWS V14.00,2013-01-09 02:02:00,
2013-01-08 21:07:00,76.1,71.6,30.11,SE,146,5.0,7.0,86,0.00,,SCT030CU,0.00,0.00,VWS V14.00,2013-01-09 02:07:00,
2013-01-08 21:12:00,76.1,71.6,30.11,SE,146,5.0,13.0,86,0.00,,SCT030CU,0.00,0.00,VWS V14.00,2013-01-09 02:12:00,
2013-01-08 21:17:00,76.1,71.6,30.11,SSE,155,1.0,3.0,86,0.00,,SCT030CU,0.00,0.00,VWS V14.00,2013-01-09 02:17:00,
2013-01-08 21:22:00,76.1,71.6,30.11,SSE,154,2.0,8.0,86,0.00,,SCT030CU,0.00,0.00,VWS V14.00,2013-01-09 02:22:00,
2013-01-08 21:27:00,76.1,71.6,30.11,SSE,163,6.0,10.0,86,0.00,,SCT030CU,0.00,0.00,VWS V14.00,2013-01-09 02:27:00,
2013-01-08 21:32:00,76.0,71.5,30.11,SSE,152,5.0,13.0,86,0.00,,SCT014,0.00,0.00,VWS V14.00,2013-01-09 02:32:00,
2013-01-08 21:37:00,76.0,71.9,30.11,SSE,149,3.0,7.0,87,0.00,,SCT014,0.00,0.00,VWS V14.00,2013-01-09 02:37:00,
2013-01-08 21:42:00,76.0,71.9,30.11,SSE,148,6.0,6.0,87,0.00,,SCT014,0.00,0.00,VWS V14.00,2013-01-09 02:42:00,
2013-01-08 21:47:00,75.9,71.8,30.11,SE,146,5.0,6.0,87,0.00,,SCT014,0.00,0.00,VWS V14.00,2013-01-09 02:47:00,
2013-01-08 21:52:00,75.8,72.0,30.11,SE,145,5.0,8.0,88,0.00,,SCT014,0.00,0.00,VWS V14.00,2013-01-09 02:52:00,
2013-01-08 21:57:00,75.8,72.0,30.11,SSE,153,5.0,11.0,88,0.00,,SCT014,0.00,0.00,VWS V14.00,2013-01-09 02:57:00,
2013-01-08 22:02:00,75.8,72.0,30.11,SSE,153,9.0,10.0,88,0.00,,SCT014,0.00,0.00,VWS V14.00,2013-01-09 03:02:00,
2013-01-08 22:07:00,75.8,72.0,30.12,SSE,155,9.0,11.0,88,0.00,,SCT014,0.00,0.00,VWS V14.00,2013-01-09 03:07:00,
2013-01-08 22:12:00,75.9,72.1,30.12,SSE,162,5.0,6.0,88,0.00,,SCT014,0.00,0.00,VWS V14.00,2013-01-09 03:12:00,
2013-01-08 22:17:00,76.0,72.2,30.12,SSE,157,2.0,4.0,88,0.00,,SCT014,0.00,0.00,VWS V14.00,2013-01-09 03:17:00,
2013-01-08 22:22:00,76.0,72.2,30.12,SSE,157,1.0,9.0,88,0.00,,SCT014,0.00,0.00,VWS V14.00,2013-01-09 03:22:00,
2013-01-08 22:27:00,76.1,72.3,30.12,SSE,165,11.0,11.0,88,0.00,,SCT014,0.00,0.00,VWS V14.00,2013-01-09 03:27:00,
2013-01-08 22:32:00,76.2,72.4,30.12,SSE,165,3.0,7.0,88,0.00,,SCT014,0.00,0.00,VWS V14.00,2013-01-09 03:32:00,
2013-01-08 22:37:00,76.2,72.4,30.12,SSE,161,10.0,10.0,88,0.00,,SCT014,0.00,0.00,VWS V14.00,2013-01-09 03:37:00,
2013-01-08 22:42:00,75.4,71.3,30.13,SSE,168,6.0,15.0,87,0.00,,SCT014,0.00,0.00,VWS V14.00,2013-01-09 03:42:00,
2013-01-08 22:47:00,74.3,70.2,30.12,SSE,159,4.0,10.0,87,0.00,,SCT014,0.00,0.00,VWS V14.00,2013-01-09 03:47:00,
2013-01-08 22:52:00,73.7,69.9,30.12,SSE,157,4.0,7.0,88,0.00,,SCT014,0.00,0.00,VWS V14.00,2013-01-09 03:52:00,
2013-01-08 22:57:00,73.6,70.2,30.12,SSE,158,2.0,7.0,89,0.00,,SCT014,0.00,0.00,VWS V14.00,2013-01-09 03:57:00,
2013-01-08 23:02:00,73.6,70.5,30.12,SSE,163,0.0,9.0,90,0.00,,SCT014,0.00,0.00,VWS V14.00,2013-01-09 04:02:00,
2013-01-08 23:07:00,73.7,70.6,30.12,SSE,163,2.0,5.0,90,0.00,,SCT014,0.00,0.00,VWS V14.00,2013-01-09 04:07:00,
2013-01-08 23:12:00,73.7,70.6,30.12,SSE,161,1.0,3.0,90,0.00,,SCT014,0.00,0.00,VWS V14.00,2013-01-09 04:12:00,
2013-01-08 23:17:00,73.7,70.6,30.12,SSE,161,3.0,5.0,90,0.00,,SCT014,0.00,0.00,VWS V14.00,2013-01-09 04:17:00,
2013-01-08 23:22:00,73.7,70.3,30.13,SSE,161,3.0,4.0,89,0.00,,SCT014,0.00,0.00,VWS V14.00,2013-01-09 04:22:00,
2013-01-08 23:27:00,73.7,70.6,30.13,SSE,161,2.0,5.0,90,0.00,,SCT014,0.00,0.00,VWS V14.00,2013-01-09 04:27:00,
2013-01-08 23:32:00,73.7,70.6,30.13,SSE,161,2.0,5.0,90,0.00,,SCT014,0.00,0.00,VWS V14.00,2013-01-09 04:32:00,
2013-01-08 23:37:00,73.7,70.6,30.12,SSE,161,3.0,4.0,90,0.00,,SCT014,0.00,0.00,VWS V14.00,2013-01-09 04:37:00,
2013-01-08 23:42:00,73.8,70.7,30.12,SSE,161,1.0,2.0,90,0.00,,SCT014,0.00,0.00,VWS V14.00,2013-01-09 04:42:00,
2013-01-08 23:47:00,73.8,70.7,30.12,SSE,161,3.0,3.0,90,0.00,,SCT014,0.00,0.00,VWS V14.00,2013-01-09 04:47:00,
2013-01-08 23:52:00,73.8,70.7,30.12,SSE,161,4.0,4.0,90,0.00,,SCT014,0.00,0.00,VWS V14.00,2013-01-09 04:52:00,
2013-01-08 23:57:00,73.9,70.8,30.12,SSE,161,0.0,0.0,90,0.00,,SCT014,0.00,0.00,VWS V14.00,2013-01-09 04:57:00,